,,PA_Meas_PMT16A,,PR_Meas_QMR101_102,,RH_Meas_QMH101,,SR_Meas_QMS101,,TA_Meas_QMH101,,GenWind,,GenWind,
time,status,PA,status,PR,status,RH,status,SR,status,TA,status,DirAvg,status,SpdAvg,
2010-06-21, 00:00:05,VALID,917.926,VALID,0,VALID,96.9851,VALID,0,VALID,20.9316,VALID,61,VALID,0.330078,
2010-06-21, 00:01:05,VALID,917.923,VALID,0,VALID,96.9775,VALID,0,VALID,20.912,VALID,61,VALID,0.172266,
2010-06-21, 00:02:05,VALID,917.953,VALID,0,VALID,96.9851,VALID,0,VALID,20.9316,VALID,61,VALID,0,
2010-06-21, 00:03:05,VALID,917.94,VALID,0,VALID,96.9775,VALID,0,VALID,20.9495,VALID,61,VALID,0.0105469,
2010-06-21, 00:04:05,VALID,917.914,VALID,0,VALID,96.9927,VALID,0,VALID,20.9511,VALID,61,VALID,0.265234,
2010-06-21, 00:05:05,VALID,917.884,VALID,0,VALID,96.9927,VALID,0,VALID,20.9706,VALID,61,VALID,0.0136719,
2010-06-21, 00:06:05,VALID,917.888,VALID,0,VALID,96.9698,VALID,0,VALID,20.9901,VALID,61,VALID,0.322656,
2010-06-21, 00:07:05,VALID,917.85,VALID,0,VALID,97.0003,VALID,0,VALID,20.9901,VALID,60,VALID,0.409766,
2010-06-21, 00:08:05,VALID,917.854,VALID,0,VALID,96.9851,VALID,0,VALID,20.9316,VALID,61,VALID,0.451562,
2010-06-21, 00:09:05,VALID,917.828,VALID,0,VALID,96.9698,VALID,0,VALID,20.891,VALID,61,VALID,0.599219,
2010-06-21, 00:10:05,VALID,917.81,VALID,0,VALID,96.9851,VALID,0,VALID,20.8714,VALID,61,VALID,0.591797,
2010-06-21, 00:11:05,VALID,917.777,VALID,0,VALID,96.9775,VALID,0,VALID,20.912,VALID,61,VALID,0.430078,
2010-06-21, 00:12:05,VALID,917.799,VALID,0,VALID,96.9698,VALID,0,VALID,20.8925,VALID,61,VALID,0.544141,
2010-06-21, 00:13:05,VALID,917.769,VALID,0,VALID,96.9775,VALID,0,VALID,20.873,VALID,61,VALID,0.542578,
2010-06-21, 00:14:05,VALID,917.74,VALID,0,VALID,96.9546,VALID,0,VALID,20.8941,VALID,61,VALID,0.595312,
2010-06-21, 00:15:05,VALID,917.736,VALID,0,VALID,96.9698,VALID,0,VALID,20.8519,VALID,61,VALID,0.576953,
2010-06-21, 00:16:05,VALID,917.753,VALID,0,VALID,96.9622,VALID,0,VALID,20.8519,VALID,61,VALID,0.473437,
2010-06-21, 00:17:05,VALID,917.705,VALID,0,VALID,96.9622,VALID,0.107441,VALID,20.8714,VALID,61,VALID,0.841016,
2010-06-21, 00:18:05,VALID,917.727,VALID,0,VALID,96.9775,VALID,0.107441,VALID,20.8699,VALID,62,VALID,0.294141,
2010-06-21, 00:19:05,VALID,917.693,VALID,0,VALID,96.9775,VALID,0.107441,VALID,20.8894,VALID,62,VALID,0.354688,
2010-06-21, 00:20:05,VALID,917.718,VALID,0,VALID,96.9927,VALID,0,VALID,20.9105,VALID,62,VALID,0.628125,
2010-06-21, 00:21:05,VALID,917.696,VALID,0,VALID,97.0156,VALID,0,VALID,20.9105,VALID,62,VALID,0.211328,
2010-06-21, 00:22:05,VALID,917.693,VALID,0,VALID,97.0232,VALID,0,VALID,20.93,VALID,62,VALID,0.415234,
2010-06-21, 00:23:05,VALID,917.641,VALID,0,VALID,97.008,VALID,0,VALID,20.93,VALID,62,VALID,0.427344,
2010-06-21, 00:24:05,VALID,917.647,VALID,0,VALID,97.0232,VALID,0,VALID,20.9105,VALID,62,VALID,0.560156,
2010-06-21, 00:25:05,VALID,917.623,VALID,0,VALID,97.0156,VALID,0,VALID,20.891,VALID,62,VALID,0.578906,
2010-06-21, 00:26:05,VALID,917.624,VALID,0,VALID,97.0308,VALID,0,VALID,20.9105,VALID,62,VALID,0.496094,
2010-06-21, 00:27:05,VALID,917.649,VALID,0,VALID,97.0308,VALID,0,VALID,20.8714,VALID,62,VALID,0.761328,
2010-06-21, 00:28:05,VALID,917.636,VALID,0,VALID,97.0308,VALID,0,VALID,20.8519,VALID,62,VALID,0.35625,
2010-06-21, 00:29:05,VALID,917.655,VALID,0,VALID,97.0308,VALID,0,VALID,20.9105,VALID,62,VALID,0.250391,
2010-06-21, 00:30:05,VALID,917.677,VALID,0,VALID,97.0156,VALID,0,VALID,20.8714,VALID,62,VALID,0.502344,
2010-06-21, 00:31:05,VALID,917.649,VALID,0,VALID,97.0232,VALID,0,VALID,20.8129,VALID,113,VALID,0.850781,
2010-06-21, 00:32:05,VALID,917.673,VALID,0,VALID,97.0232,VALID,0,VALID,20.8129,VALID,113,VALID,0.717969,
2010-06-21, 00:33:05,VALID,917.648,VALID,0,VALID,97.0232,VALID,0,VALID,20.7934,VALID,113,VALID,0.741797,
2010-06-21, 00:34:05,VALID,917.65,VALID,0,VALID,97.0308,VALID,0,VALID,20.7544,VALID,113,VALID,0.519922,
2010-06-21, 00:35:05,VALID,917.647,VALID,0,VALID,97.0308,VALID,0,VALID,20.7739,VALID,113,VALID,0.542578,
2010-06-21, 00:36:05,VALID,917.635,VALID,0,VALID,97.0308,VALID,0,VALID,20.7934,VALID,113,VALID,0.675781,
2010-06-21, 00:37:05,VALID,917.632,VALID,0,VALID,97.0308,VALID,0,VALID,20.7544,VALID,113,VALID,0.540625,
2010-06-21, 00:38:05,VALID,917.641,VALID,0,VALID,97.0385,VALID,0,VALID,20.7349,VALID,113,VALID,0.679297,
2010-06-21, 00:39:05,VALID,917.587,VALID,0,VALID,97.0232,VALID,0.107441,VALID,20.7154,VALID,113,VALID,0.591406,
2010-06-21, 00:40:05,VALID,917.586,VALID,0,VALID,97.0308,VALID,0,VALID,20.6943,VALID,113,VALID,0.523438,
2010-06-21, 00:41:05,VALID,917.554,VALID,0,VALID,97.0156,VALID,0.107441,VALID,20.7154,VALID,113,VALID,0.176172,
2010-06-21, 00:42:05,VALID,917.546,VALID,0,VALID,97.0308,VALID,0,VALID,20.7154,VALID,113,VALID,0.0679687,
2010-06-21, 00:43:05,VALID,917.545,VALID,0,VALID,97.0461,VALID,0,VALID,20.6959,VALID,113,VALID,0.0015625,
2010-06-21, 00:44:05,VALID,917.529,VALID,0,VALID,97.0461,VALID,0.107441,VALID,20.6959,VALID,113,VALID,0.0820313,
2010-06-21, 00:45:05,VALID,917.493,VALID,0,VALID,97.0461,VALID,0.107441,VALID,20.6553,VALID,113,VALID,0.301562,
2010-06-21, 00:46:05,VALID,917.462,VALID,0,VALID,97.0461,VALID,0.107441,VALID,20.6553,VALID,113,VALID,0.344531,
2010-06-21, 00:47:05,VALID,917.466,VALID,0,VALID,97.069,VALID,0,VALID,20.6553,VALID,113,VALID,0.213672,
2010-06-21, 00:48:05,VALID,917.437,VALID,0,VALID,97.0613,VALID,0.107441,VALID,20.6764,VALID,113,VALID,0,
2010-06-21, 00:49:05,VALID,917.454,VALID,0,VALID,97.0308,VALID,0.107441,VALID,20.6748,VALID,113,VALID,0,
2010-06-21, 00:50:05,VALID,917.438,VALID,0,VALID,97.0766,VALID,0,VALID,20.6943,VALID,113,VALID,0.180469,
2010-06-21, 00:51:05,VALID,917.421,VALID,0,VALID,97.0918,VALID,0,VALID,20.6943,VALID,113,VALID,0,
2010-06-21, 00:52:05,VALID,917.421,VALID,0,VALID,97.0842,VALID,0,VALID,20.6959,VALID,113,VALID,0.0046875,
2010-06-21, 00:53:05,VALID,917.386,VALID,0,VALID,97.0918,VALID,0.107441,VALID,20.7154,VALID,113,VALID,0.158203,
2010-06-21, 00:54:05,VALID,917.378,VALID,0,VALID,97.069,VALID,0,VALID,20.6553,VALID,113,VALID,0.0433594,
2010-06-21, 00:55:05,VALID,917.359,VALID,0,VALID,97.069,VALID,0,VALID,20.6959,VALID,113,VALID,0.254297,
2010-06-21, 00:56:05,VALID,917.299,VALID,0,VALID,97.0766,VALID,0,VALID,20.7349,VALID,113,VALID,0.316797,
2010-06-21, 00:57:05,VALID,917.296,VALID,0,VALID,97.069,VALID,0,VALID,20.7154,VALID,113,VALID,0.321094,
2010-06-21, 00:58:05,VALID,917.236,VALID,0,VALID,97.0613,VALID,0.107441,VALID,20.7349,VALID,113,VALID,0.000390625,
2010-06-21, 00:59:05,VALID,917.18,VALID,0,VALID,97.0461,VALID,0,VALID,20.6943,VALID,113,VALID,0.375,
2010-06-21, 01:00:05,VALID,917.18,VALID,0,VALID,97.0385,VALID,0,VALID,20.717,VALID,113,VALID,0.388672,
2010-06-21, 01:01:05,VALID,917.159,VALID,0,VALID,97.0232,VALID,0,VALID,20.6959,VALID,113,VALID,0.448828,
2010-06-21, 01:02:05,VALID,917.153,VALID,0,VALID,97.0385,VALID,0,VALID,20.6764,VALID,113,VALID,0.579297,
2010-06-21, 01:03:05,VALID,917.146,VALID,0,VALID,97.0232,VALID,0,VALID,20.678,VALID,114,VALID,0.625781,
2010-06-21, 01:04:05,VALID,917.171,VALID,0,VALID,97.0156,VALID,0,VALID,20.6975,VALID,113,VALID,0.642969,
2010-06-21, 01:05:05,VALID,917.168,VALID,0,VALID,97.0156,VALID,0,VALID,20.6975,VALID,113,VALID,0.534766,
2010-06-21, 01:06:05,VALID,917.165,VALID,0,VALID,97.0385,VALID,0,VALID,20.717,VALID,113,VALID,0.340625,
2010-06-21, 01:07:05,VALID,917.18,VALID,0,VALID,97.0385,VALID,0,VALID,20.6959,VALID,113,VALID,0.260938,
2010-06-21, 01:08:05,VALID,917.181,VALID,0,VALID,97.0308,VALID,0,VALID,20.6959,VALID,113,VALID,0.525781,
2010-06-21, 01:09:05,VALID,917.176,VALID,0,VALID,97.0156,VALID,0,VALID,20.717,VALID,113,VALID,0.147266,
2010-06-21, 01:10:05,VALID,917.159,VALID,0,VALID,97.0156,VALID,0,VALID,20.678,VALID,113,VALID,0.313281,
2010-06-21, 01:11:05,VALID,917.157,VALID,0,VALID,97.008,VALID,0,VALID,20.678,VALID,113,VALID,0.354297,
2010-06-21, 01:12:05,VALID,917.142,VALID,0,VALID,96.9927,VALID,0,VALID,20.678,VALID,113,VALID,0.299219,
2010-06-21, 01:13:05,VALID,917.155,VALID,0,VALID,96.9851,VALID,0,VALID,20.6374,VALID,113,VALID,0.558984,
2010-06-21, 01:14:05,VALID,917.11,VALID,0,VALID,96.9698,VALID,0,VALID,20.639,VALID,113,VALID,0.638672,
2010-06-21, 01:15:05,VALID,917.12,VALID,0,VALID,96.947,VALID,0,VALID,20.6179,VALID,113,VALID,0.746094,
2010-06-21, 01:16:05,VALID,917.12,VALID,0,VALID,96.9317,VALID,0,VALID,20.6194,VALID,113,VALID,0.975781,
2010-06-21, 01:17:05,VALID,917.093,VALID,0,VALID,96.9165,VALID,0,VALID,20.5999,VALID,113,VALID,0.910937,
2010-06-21, 01:18:05,VALID,917.053,VALID,0,VALID,96.9089,VALID,0,VALID,20.5999,VALID,113,VALID,0.974219,
2010-06-21, 01:19:05,VALID,917.075,VALID,0,VALID,96.9241,VALID,0,VALID,20.6194,VALID,113,VALID,0.851563,
2010-06-21, 01:20:05,VALID,917.046,VALID,0,VALID,96.9317,VALID,0,VALID,20.6194,VALID,113,VALID,0.878516,
2010-06-21, 01:21:05,VALID,917.013,VALID,0,VALID,96.9394,VALID,0,VALID,20.5984,VALID,113,VALID,0.812891,
2010-06-21, 01:22:05,VALID,917.027,VALID,0,VALID,96.8936,VALID,0,VALID,20.6194,VALID,114,VALID,0.907031,
2010-06-21, 01:23:05,VALID,917.001,VALID,0,VALID,96.9012,VALID,0,VALID,20.5999,VALID,113,VALID,0.982422,
2010-06-21, 01:24:05,VALID,916.968,VALID,0,VALID,96.9241,VALID,0,VALID,20.5789,VALID,113,VALID,0.832031,
2010-06-21, 01:25:05,VALID,916.933,VALID,0,VALID,96.9012,VALID,0,VALID,20.5999,VALID,113,VALID,0.759375,
2010-06-21, 01:26:05,VALID,916.898,VALID,0,VALID,96.9089,VALID,0,VALID,20.5804,VALID,114,VALID,0.828125,
2010-06-21, 01:27:05,VALID,916.873,VALID,0,VALID,96.9012,VALID,0,VALID,20.5804,VALID,113,VALID,0.779688,
2010-06-21, 01:28:05,VALID,916.869,VALID,0,VALID,96.9089,VALID,0,VALID,20.5609,VALID,113,VALID,0.895703,
2010-06-21, 01:29:04,VALID,916.858,VALID,0,VALID,96.8936,VALID,0,VALID,20.5414,VALID,113,VALID,0.671094,
2010-06-21, 01:30:04,VALID,916.828,VALID,0,VALID,96.9317,VALID,0,VALID,20.5399,VALID,113,VALID,0.617969,
2010-06-21, 01:31:04,VALID,916.834,VALID,0,VALID,96.9241,VALID,0,VALID,20.5594,VALID,113,VALID,0.425781,
2010-06-21, 01:32:04,VALID,916.832,VALID,0,VALID,96.9317,VALID,0,VALID,20.5984,VALID,113,VALID,0.689062,
2010-06-21, 01:33:04,VALID,916.821,VALID,0,VALID,96.9698,VALID,0,VALID,20.5789,VALID,113,VALID,0.837109,
2010-06-21, 01:34:04,VALID,916.846,VALID,0,VALID,96.947,VALID,0,VALID,20.5789,VALID,112,VALID,0.592578,
2010-06-21, 01:35:04,VALID,916.861,VALID,0,VALID,96.9622,VALID,0,VALID,20.5984,VALID,112,VALID,0.585547,
2010-06-21, 01:36:04,VALID,916.867,VALID,0,VALID,96.9851,VALID,0,VALID,20.6374,VALID,112,VALID,0.414453,
2010-06-21, 01:37:04,VALID,916.869,VALID,0,VALID,97.0003,VALID,0,VALID,20.6569,VALID,112,VALID,0.174219,
2010-06-21, 01:38:04,VALID,916.886,VALID,0,VALID,97.008,VALID,0.107441,VALID,20.6748,VALID,112,VALID,0.394531,
2010-06-21, 01:39:04,VALID,916.868,VALID,0,VALID,97.0232,VALID,0,VALID,20.7154,VALID,112,VALID,0.0535156,
2010-06-21, 01:40:04,VALID,916.861,VALID,0,VALID,97.0156,VALID,0,VALID,20.7349,VALID,112,VALID,0,
2010-06-21, 01:41:04,VALID,916.866,VALID,0,VALID,97.0385,VALID,0,VALID,20.7349,VALID,112,VALID,0.188281,
2010-06-21, 01:42:04,VALID,916.809,VALID,0,VALID,97.0308,VALID,0,VALID,20.7544,VALID,112,VALID,0.164063,
2010-06-21, 01:43:04,VALID,916.797,VALID,0,VALID,97.0232,VALID,0,VALID,20.7739,VALID,113,VALID,0.225391,
2010-06-21, 01:44:04,VALID,916.764,VALID,0,VALID,97.0232,VALID,0,VALID,20.7349,VALID,113,VALID,0.328125,
2010-06-21, 01:45:04,VALID,916.767,VALID,0,VALID,97.0461,VALID,0,VALID,20.7349,VALID,113,VALID,0.421875,
2010-06-21, 01:46:04,VALID,916.769,VALID,0,VALID,97.0537,VALID,0,VALID,20.7349,VALID,113,VALID,0.185156,
2010-06-21, 01:47:04,VALID,916.784,VALID,0,VALID,97.0537,VALID,0,VALID,20.756,VALID,112,VALID,0.182031,
2010-06-21, 01:48:04,VALID,916.786,VALID,0,VALID,97.0613,VALID,0,VALID,20.7154,VALID,112,VALID,0.31875,
2010-06-21, 01:49:04,VALID,916.8,VALID,0,VALID,97.0461,VALID,0,VALID,20.7349,VALID,112,VALID,0,
2010-06-21, 01:50:04,VALID,916.796,VALID,0,VALID,97.069,VALID,0,VALID,20.7544,VALID,113,VALID,0,
2010-06-21, 01:51:04,VALID,916.793,VALID,0,VALID,97.0537,VALID,0,VALID,20.7365,VALID,112,VALID,0,
2010-06-21, 01:52:04,VALID,916.818,VALID,0,VALID,97.0613,VALID,0,VALID,20.6959,VALID,112,VALID,0,
2010-06-21, 01:53:04,VALID,916.801,VALID,0,VALID,97.0537,VALID,0,VALID,20.6959,VALID,112,VALID,0,
2010-06-21, 01:54:04,VALID,916.783,VALID,0,VALID,97.0537,VALID,0,VALID,20.6959,VALID,112,VALID,0.126172,
2010-06-21, 01:55:04,VALID,916.815,VALID,0,VALID,97.0842,VALID,0,VALID,20.7154,VALID,112,VALID,0,
2010-06-21, 01:56:04,VALID,916.829,VALID,0,VALID,97.0766,VALID,0,VALID,20.7349,VALID,113,VALID,0.00507812,
2010-06-21, 01:57:04,VALID,916.825,VALID,0,VALID,97.0842,VALID,0,VALID,20.7365,VALID,112,VALID,0.262891,
2010-06-21, 01:58:04,VALID,916.839,VALID,0,VALID,97.0994,VALID,0,VALID,20.7154,VALID,112,VALID,0.212109,
2010-06-21, 01:59:04,VALID,916.851,VALID,0,VALID,97.1071,VALID,0,VALID,20.756,VALID,112,VALID,0.0269531,
2010-06-21, 02:00:04,VALID,916.855,VALID,0,VALID,97.1071,VALID,0,VALID,20.7544,VALID,113,VALID,0,
2010-06-21, 02:01:04,VALID,916.855,VALID,0,VALID,97.1071,VALID,0,VALID,20.7544,VALID,112,VALID,0,
2010-06-21, 02:02:04,VALID,916.874,VALID,0,VALID,97.1223,VALID,0,VALID,20.7739,VALID,112,VALID,0.0414063,
2010-06-21, 02:03:04,VALID,916.816,VALID,0,VALID,97.1147,VALID,0,VALID,20.7934,VALID,112,VALID,0.366406,
2010-06-21, 02:04:04,VALID,916.79,VALID,0,VALID,97.1299,VALID,0,VALID,20.7934,VALID,112,VALID,0.601953,
2010-06-21, 02:05:04,VALID,916.809,VALID,0,VALID,97.1147,VALID,0,VALID,20.7544,VALID,112,VALID,0.340625,
2010-06-21, 02:06:04,VALID,916.803,VALID,0,VALID,97.1223,VALID,0,VALID,20.7544,VALID,113,VALID,0.259375,
2010-06-21, 02:07:04,VALID,916.783,VALID,0,VALID,97.0994,VALID,0,VALID,20.7154,VALID,113,VALID,0.51875,
2010-06-21, 02:08:04,VALID,916.787,VALID,0,VALID,97.1299,VALID,0,VALID,20.6764,VALID,112,VALID,0.441797,
2010-06-21, 02:09:04,VALID,916.792,VALID,0,VALID,97.1071,VALID,0,VALID,20.6374,VALID,113,VALID,0.569531,
2010-06-21, 02:10:04,VALID,916.794,VALID,0,VALID,97.1223,VALID,0,VALID,20.5984,VALID,112,VALID,0.646484,
2010-06-21, 02:11:04,VALID,916.789,VALID,0,VALID,97.1147,VALID,0,VALID,20.639,VALID,113,VALID,0.105078,
2010-06-21, 02:12:04,VALID,916.781,VALID,0,VALID,97.1299,VALID,0,VALID,20.6179,VALID,113,VALID,0.278516,
2010-06-21, 02:13:04,VALID,916.801,VALID,0,VALID,97.1299,VALID,0,VALID,20.5984,VALID,112,VALID,0.262109,
2010-06-21, 02:14:04,VALID,916.822,VALID,0,VALID,97.1376,VALID,0,VALID,20.5984,VALID,113,VALID,0.291406,
2010-06-21, 02:15:04,VALID,916.762,VALID,0,VALID,97.1452,VALID,0,VALID,20.5984,VALID,112,VALID,0.529297,
2010-06-21, 02:16:04,VALID,916.783,VALID,0,VALID,97.1452,VALID,0,VALID,20.5578,VALID,112,VALID,0.247266,
2010-06-21, 02:17:04,VALID,916.78,VALID,0,VALID,97.1604,VALID,0,VALID,20.5804,VALID,113,VALID,0.591016,
2010-06-21, 02:18:04,VALID,916.8,VALID,0,VALID,97.1528,VALID,0,VALID,20.5594,VALID,112,VALID,0.398438,
2010-06-21, 02:19:04,VALID,916.771,VALID,0,VALID,97.1299,VALID,0,VALID,20.5999,VALID,113,VALID,0.290625,
2010-06-21, 02:20:04,VALID,916.778,VALID,0,VALID,97.1681,VALID,0,VALID,20.6194,VALID,112,VALID,0.233594,
2010-06-21, 02:21:04,VALID,916.797,VALID,0,VALID,97.1604,VALID,0,VALID,20.5773,VALID,112,VALID,0.386328,
2010-06-21, 02:22:04,VALID,916.807,VALID,0,VALID,97.1909,VALID,0,VALID,20.5789,VALID,113,VALID,0.223438,
2010-06-21, 02:23:04,VALID,916.809,VALID,0,VALID,97.1757,VALID,0,VALID,20.5789,VALID,112,VALID,0.357422,
2010-06-21, 02:24:04,VALID,916.78,VALID,0,VALID,97.1833,VALID,0,VALID,20.5399,VALID,112,VALID,0.221484,
2010-06-21, 02:25:04,VALID,916.768,VALID,0,VALID,97.1604,VALID,0,VALID,20.5399,VALID,112,VALID,0.191406,
2010-06-21, 02:26:04,VALID,916.756,VALID,0,VALID,97.1604,VALID,0,VALID,20.5399,VALID,112,VALID,0.125,
2010-06-21, 02:27:04,VALID,916.736,VALID,0,VALID,97.1833,VALID,0,VALID,20.5609,VALID,113,VALID,0.166406,
2010-06-21, 02:28:04,VALID,916.688,VALID,0,VALID,97.1757,VALID,0,VALID,20.5204,VALID,112,VALID,0.262109,
2010-06-21, 02:29:04,VALID,916.669,VALID,0,VALID,97.1681,VALID,0,VALID,20.4813,VALID,112,VALID,0.242578,
2010-06-21, 02:30:04,VALID,916.627,VALID,0,VALID,97.1604,VALID,0,VALID,20.4829,VALID,112,VALID,0.335156,
2010-06-21, 02:31:04,VALID,916.641,VALID,0,VALID,97.1909,VALID,0,VALID,20.4634,VALID,112,VALID,0.319531,
2010-06-21, 02:32:04,VALID,916.645,VALID,0,VALID,97.1909,VALID,0,VALID,20.4439,VALID,112,VALID,0.285156,
2010-06-21, 02:33:04,VALID,916.638,VALID,0,VALID,97.1833,VALID,0,VALID,20.4634,VALID,112,VALID,0.330469,
2010-06-21, 02:34:04,VALID,916.612,VALID,0,VALID,97.1909,VALID,0,VALID,20.4634,VALID,112,VALID,0.483594,
2010-06-21, 02:35:04,VALID,916.633,VALID,0,VALID,97.1986,VALID,0,VALID,20.4634,VALID,113,VALID,0.592578,
2010-06-21, 02:36:04,VALID,916.6,VALID,0,VALID,97.2062,VALID,0,VALID,20.4439,VALID,112,VALID,0.575,
2010-06-21, 02:37:04,VALID,916.583,VALID,0,VALID,97.1909,VALID,0,VALID,20.4244,VALID,112,VALID,0.688672,
2010-06-21, 02:38:04,VALID,916.561,VALID,0,VALID,97.2138,VALID,0,VALID,20.4259,VALID,112,VALID,0.516406,
2010-06-21, 02:39:04,VALID,916.552,VALID,0,VALID,97.2214,VALID,0,VALID,20.4244,VALID,112,VALID,0.559375,
2010-06-21, 02:40:04,VALID,916.577,VALID,0,VALID,97.2214,VALID,0,VALID,20.4049,VALID,112,VALID,0.530469,
2010-06-21, 02:41:04,VALID,916.513,VALID,0,VALID,97.2138,VALID,0,VALID,20.3464,VALID,112,VALID,0.535547,
2010-06-21, 02:42:04,VALID,916.537,VALID,0,VALID,97.229,VALID,0,VALID,20.3269,VALID,112,VALID,0.718359,
2010-06-21, 02:43:04,VALID,916.487,VALID,0,VALID,97.2138,VALID,0,VALID,20.3269,VALID,112,VALID,0.710547,
2010-06-21, 02:44:04,VALID,916.518,VALID,0,VALID,97.1986,VALID,0,VALID,20.3074,VALID,112,VALID,0.851953,
2010-06-21, 02:45:04,VALID,916.536,VALID,0,VALID,97.229,VALID,0.107441,VALID,20.3058,VALID,112,VALID,0.399219,
2010-06-21, 02:46:04,VALID,916.52,VALID,0,VALID,97.229,VALID,0,VALID,20.2653,VALID,112,VALID,0.378125,
2010-06-21, 02:47:04,VALID,916.509,VALID,0,VALID,97.2519,VALID,0,VALID,20.2863,VALID,112,VALID,0.316406,
2010-06-21, 02:48:04,VALID,916.514,VALID,0,VALID,97.229,VALID,0.107441,VALID,20.2458,VALID,112,VALID,0.601563,
2010-06-21, 02:49:04,VALID,916.538,VALID,0,VALID,97.2214,VALID,0,VALID,20.2473,VALID,112,VALID,0.624609,
2010-06-21, 02:50:04,VALID,916.518,VALID,0,VALID,97.2519,VALID,0.107441,VALID,20.2278,VALID,112,VALID,0.536328,
2010-06-21, 02:51:04,VALID,916.495,VALID,0,VALID,97.2367,VALID,0.107441,VALID,20.2083,VALID,112,VALID,0.647266,
2010-06-21, 02:52:04,VALID,916.502,VALID,0,VALID,97.2519,VALID,0,VALID,20.2083,VALID,113,VALID,0.876172,
2010-06-21, 02:53:04,VALID,916.474,VALID,0,VALID,97.2595,VALID,0.107441,VALID,20.2083,VALID,112,VALID,0.812891,
2010-06-21, 02:54:04,VALID,916.486,VALID,0,VALID,97.2443,VALID,0.107441,VALID,20.1888,VALID,112,VALID,0.899219,
2010-06-21, 02:55:04,VALID,916.462,VALID,0,VALID,97.2595,VALID,0,VALID,20.1693,VALID,112,VALID,1.15039,
2010-06-21, 02:56:04,VALID,916.471,VALID,0,VALID,97.2595,VALID,0,VALID,20.1693,VALID,111,VALID,1.14258,
2010-06-21, 02:57:04,VALID,916.48,VALID,0,VALID,97.2748,VALID,0.107441,VALID,20.1693,VALID,110,VALID,0.84375,
2010-06-21, 02:58:04,VALID,916.449,VALID,0,VALID,97.2519,VALID,0,VALID,20.1693,VALID,110,VALID,0.548828,
2010-06-21, 02:59:04,VALID,916.477,VALID,0,VALID,97.2595,VALID,0,VALID,20.1498,VALID,110,VALID,0.738281,
2010-06-21, 03:00:04,VALID,916.444,VALID,0,VALID,97.2824,VALID,0,VALID,20.1498,VALID,110,VALID,0.813281,
2010-06-21, 03:01:04,VALID,916.458,VALID,0,VALID,97.2748,VALID,0.107441,VALID,20.1288,VALID,110,VALID,1.07969,
2010-06-21, 03:02:04,VALID,916.417,VALID,0,VALID,97.2748,VALID,0.107441,VALID,20.1498,VALID,110,VALID,1.12969,
2010-06-21, 03:03:04,VALID,916.41,VALID,0,VALID,97.2672,VALID,0.107441,VALID,20.1303,VALID,110,VALID,0.9125,
2010-06-21, 03:04:04,VALID,916.41,VALID,0,VALID,97.29,VALID,0,VALID,20.1498,VALID,109,VALID,0.858984,
2010-06-21, 03:05:04,VALID,916.443,VALID,0,VALID,97.2977,VALID,0,VALID,20.1693,VALID,109,VALID,1.13047,
2010-06-21, 03:06:04,VALID,916.416,VALID,0,VALID,97.2977,VALID,0,VALID,20.1888,VALID,110,VALID,0.847656,
2010-06-21, 03:07:04,VALID,916.451,VALID,0,VALID,97.3129,VALID,0,VALID,20.1693,VALID,109,VALID,0.555078,
2010-06-21, 03:08:04,VALID,916.491,VALID,0,VALID,97.3358,VALID,0,VALID,20.1693,VALID,109,VALID,0.426953,
2010-06-21, 03:09:04,VALID,916.506,VALID,0,VALID,97.3129,VALID,0,VALID,20.1888,VALID,110,VALID,0.600391,
2010-06-21, 03:10:04,VALID,916.507,VALID,0,VALID,97.3205,VALID,0,VALID,20.1888,VALID,109,VALID,0.625781,
2010-06-21, 03:11:04,VALID,916.53,VALID,0,VALID,97.3129,VALID,0.107441,VALID,20.2083,VALID,109,VALID,0.362891,
2010-06-21, 03:12:04,VALID,916.524,VALID,0,VALID,97.3129,VALID,0,VALID,20.2278,VALID,110,VALID,0.814062,
2010-06-21, 03:13:04,VALID,916.529,VALID,0,VALID,97.3053,VALID,0.107441,VALID,20.2489,VALID,110,VALID,0.701172,
2010-06-21, 03:14:04,VALID,916.526,VALID,0,VALID,97.3205,VALID,0,VALID,20.2278,VALID,109,VALID,0.732422,
2010-06-21, 03:15:04,VALID,916.497,VALID,0,VALID,97.3129,VALID,0,VALID,20.2098,VALID,109,VALID,0.587891,
2010-06-21, 03:16:04,VALID,916.467,VALID,0,VALID,97.3281,VALID,0,VALID,20.2489,VALID,109,VALID,1.02539,
2010-06-21, 03:17:04,VALID,916.447,VALID,0,VALID,97.3129,VALID,0,VALID,20.2489,VALID,109,VALID,1.0332,
2010-06-21, 03:18:04,VALID,916.441,VALID,0,VALID,97.3281,VALID,0,VALID,20.2684,VALID,109,VALID,1.22852,
2010-06-21, 03:19:04,VALID,916.458,VALID,0,VALID,97.3129,VALID,0,VALID,20.2684,VALID,109,VALID,0.797266,
2010-06-21, 03:20:04,VALID,916.441,VALID,0,VALID,97.3358,VALID,0,VALID,20.2879,VALID,109,VALID,0.803906,
2010-06-21, 03:21:04,VALID,916.43,VALID,0,VALID,97.3281,VALID,0,VALID,20.2879,VALID,109,VALID,1.08555,
2010-06-21, 03:22:04,VALID,916.4,VALID,0,VALID,97.3358,VALID,0,VALID,20.2879,VALID,109,VALID,1.01328,
2010-06-21, 03:23:04,VALID,916.373,VALID,0,VALID,97.351,VALID,0,VALID,20.3074,VALID,109,VALID,1.18984,
2010-06-21, 03:24:04,VALID,916.322,VALID,0,VALID,97.3358,VALID,0,VALID,20.3074,VALID,131,VALID,0.846094,
2010-06-21, 03:25:04,VALID,916.33,VALID,0,VALID,97.3358,VALID,0,VALID,20.3269,VALID,133,VALID,0.959375,
2010-06-21, 03:26:04,VALID,916.309,VALID,0,VALID,97.3358,VALID,0,VALID,20.3464,VALID,133,VALID,0.951172,
2010-06-21, 03:27:04,VALID,916.277,VALID,0,VALID,97.351,VALID,0,VALID,20.3464,VALID,134,VALID,0.79375,
2010-06-21, 03:28:04,VALID,916.259,VALID,0,VALID,97.3205,VALID,0,VALID,20.3659,VALID,185,VALID,1.34648,
2010-06-21, 03:29:04,VALID,916.233,VALID,0,VALID,97.3358,VALID,0,VALID,20.3659,VALID,172,VALID,1.2832,
2010-06-21, 03:30:04,VALID,916.219,VALID,0,VALID,97.351,VALID,0.107441,VALID,20.3643,VALID,172,VALID,1.20508,
2010-06-21, 03:31:04,VALID,916.199,VALID,0,VALID,97.3586,VALID,0,VALID,20.3643,VALID,171,VALID,0.695313,
2010-06-21, 03:32:04,VALID,916.199,VALID,0,VALID,97.3205,VALID,0.107441,VALID,20.3838,VALID,170,VALID,0.952344,
2010-06-21, 03:33:04,VALID,916.16,VALID,0,VALID,97.3434,VALID,0,VALID,20.3854,VALID,170,VALID,0.523438,
2010-06-21, 03:34:04,VALID,916.153,VALID,0,VALID,97.351,VALID,0,VALID,20.3643,VALID,170,VALID,0.614062,
2010-06-21, 03:35:04,VALID,916.146,VALID,0,VALID,97.351,VALID,0.107441,VALID,20.3643,VALID,168,VALID,0.665234,
2010-06-21, 03:36:04,VALID,916.128,VALID,0,VALID,97.3281,VALID,0,VALID,20.3643,VALID,150,VALID,0.633594,
2010-06-21, 03:37:04,VALID,916.151,VALID,0,VALID,97.3434,VALID,0,VALID,20.3448,VALID,108,VALID,0.666016,
2010-06-21, 03:38:04,VALID,916.089,VALID,0,VALID,97.3434,VALID,0,VALID,20.3448,VALID,84,VALID,0.876953,
2010-06-21, 03:39:04,VALID,916.086,VALID,0,VALID,97.351,VALID,0.107441,VALID,20.3253,VALID,84,VALID,0.907422,
2010-06-21, 03:40:04,VALID,916.105,VALID,0,VALID,97.3358,VALID,0,VALID,20.3253,VALID,126,VALID,0.883984,
2010-06-21, 03:41:04,VALID,916.083,VALID,0,VALID,97.3281,VALID,0,VALID,20.3269,VALID,126,VALID,0.778125,
2010-06-21, 03:42:04,VALID,916.051,VALID,0,VALID,97.3663,VALID,0,VALID,20.3253,VALID,147,VALID,1.05117,
2010-06-21, 03:43:04,VALID,916.058,VALID,0,VALID,97.3663,VALID,0,VALID,20.3269,VALID,140,VALID,0.936719,